www.pogodaiklimat.ru
Время
и дата
18:53 29.12
19:53 29.12
20:53 29.12
21:53 29.12
22:53 29.12
23:53 29.12
00:53 30.12
01:53 30.12
02:53 30.12
03:53 30.12
04:53 30.12
05:53 30.12
06:53 30.12
07:53 30.12
08:53 30.12
09:53 30.12
10:53 30.12
11:53 30.12
12:53 30.12
13:53 30.12
14:53 30.12
15:53 30.12
16:53 30.12
17:53 30.12
18:53 30.12
19:53 30.12
20:53 30.12
21:53 30.12
22:53 30.12
23:53 30.12
00:53 31.12
01:53 31.12
02:53 31.12
03:53 31.12
04:53 31.12
05:53 31.12
06:53 31.12
07:53 31.12
08:53 31.12
09:53 31.12
10:53 31.12
11:53 31.12
12:53 31.12
13:53 31.12
14:53 31.12
15:53 31.12
16:53 31.12
17:53 31.12
Ветер
(напр.,м/с)
Видим. Явления Облачность Т
(С)
Тd
(С)
f
(%)
Тe
(С)
Тes
(С)
Комфортность P
(гПа)
Po
(гПа)
Тmin
(С)
Tmax
(С)
R
(мм)
R24
(мм)
S
(см)
Ю 1 16 км 2/2 900 м +24.4 +20.6 79 +30 +30 очень
душно
1018.0 1017.5 +24.4 +27.2
Ю 1 16 км ясно +24.4 +21.1 82 +31 +31 очень
душно
1018.6 1018.1
Ю 1 16 км ясно +23.9 +20.6 82 +30 +30 очень
душно
1018.8 1018.5
Ю 1 16 км ясно +23.3 +21.1 87 +31 +31 очень
душно
1018.8 1018.5
Ю 1 16 км ясно +23.9 +21.1 84 +30 +30 очень
душно
1018.8 1018.5
Ю 1 16 км ясно +23.3 +21.1 87 +31 +31 очень
душно
1018.4 1018.1
штиль 0 16 км 2/2 1050 м +22.8 +21.1 90 +30 +30 очень
душно
1017.9 1017.5 +22.8 +25.0
ЮВ 1 16 км ясно +21.7 +21.1 96 +28 +28 душно 1017.5 1017.1
штиль 0 16 км ясно +21.7 +20.6 93 +27 +27 душно 1017.2 1016.8
штиль 0 16 км ясно +21.1 +21.1 100 +26 +26 душно 1017.3 1016.8
штиль 0 16 км ясно +21.1 +20.6 97 +26 +26 душно 1017.3 1017.1
ЮЗ 1 16 км ясно +21.1 +21.1 100 +26 +26 душно 1017.7 1017.5
Ю 1 16 км 2/2 690 м +21.7 +21.7 100 +28 +28 душно 1018.6 1018.1 +20.6 +23.3
штиль 0 16 км 2/2 750 м +23.3 +22.2 94 +32 +32 очень
душно
1019.2 1018.8
Ю 1 16 км 2/2 660 м +25.0 +22.8 88 +33 +34 очень
душно
1020.0 1019.5
Ю 2 16 км 2/2 690 м +26.1 +22.2 79 +34 +36 очень
душно
1020.3 1019.8
Ю 1 16 км 5/5 810 м +27.8 +21.7 69 +36 +38 очень
душно
1020.0 1019.5
ЮВ 2 16 км 8/8 840 м +27.2 +21.7 72 +35 +36 очень
душно
1019.3 1018.8
ЮВ 2 16 км 8/8 870 м +27.8 +21.1 67 +35 +36 очень
душно
1018.1 1017.8 +22.2 +28.9
ЮВ 4 16 км 10/10 960 м +28.3 +21.1 65 +36 +36 очень
душно
1017.1 1016.8
ЮВ 3 16 км 2/2 1050 м +27.8 +21.1 67 +35 +37 очень
душно
1017.0 1016.5
ЮВ 2 16 км 2/2 1200 м +27.2 +21.1 69 +34 +36 очень
душно
1016.8 1016.5
ЮВ 3 16 км 2/2 1170 м +26.7 +21.7 74 +34 +35 очень
душно
1016.9 1016.5
Ю 2 16 км 2/2 1140 м +25.6 +21.7 79 +33 +33 очень
душно
1017.1 1016.8
Ю 1 16 км 2/2 1110 м +25.0 +22.2 84 +32 +32 очень
душно
1017.5 1017.1 +25.0 +28.3
Ю 1 16 км ясно +25.0 +22.2 84 +32 +32 очень
душно
1018.0 1017.5
Ю 1 16 км ясно +24.4 +22.2 88 +32 +32 очень
душно
1018.4 1018.1
Ю 1 16 км 2/2 900 м +24.4 +22.2 88 +32 +32 очень
душно
1018.8 1018.5
штиль 0 16 км 2/2 1290 м +23.9 +22.2 90 +31 +31 очень
душно
1019.0 1018.5
ЮЗ 1 16 км 2/2 540 м +23.9 +22.2 90 +31 +31 очень
душно
1018.8 1018.5
штиль 0 16 км 8/8 540 м +22.8 +22.2 96 +31 +31 очень
душно
1018.7 1018.1 +22.8 +25.0
штиль 0 16 км 8/8 1140 м +22.8 +22.2 96 +31 +31 очень
душно
1018.3 1017.8
штиль 0 16 км 5/5 1200 м +21.7 +21.7 100 +28 +28 душно 1018.0 1017.5
штиль 0 16 км ясно +21.1 +21.1 100 +26 +26 душно 1017.7 1017.5
штиль 0 16 км 2/2 1260 м +21.1 +21.1 100 +26 +26 душно 1017.5 1017.1
штиль 0 14 км ясно +21.1 +21.1 100 +26 +26 душно 1017.9 1017.5
С 1 16 км 2/2 690 м +20.6 +20.6 100 +26 +26 душно 1018.5 1018.1 +20.6 +22.8
штиль 0 16 км 2/2 300 м +21.7 +21.7 100 +28 +28 душно 1019.3 1018.8
штиль 0 16 км 2/2 300 м +25.0 +22.8 88 +33 +34 очень
душно
1020.0 1019.5
штиль 0 16 км 5/5 600 м +25.0 +22.2 84 +32 +34 очень
душно
1020.6 1020.2
ЮВ 1 16 км 5/5 750 м +27.2 +21.1 69 +34 +37 очень
душно
1020.4 1020.2
ЮВ 2 16 км 5/5 810 м +27.2 +21.7 72 +35 +38 очень
душно
1019.5 1019.2
ЮВ 2 16 км 5/5 840 м +27.2 +21.1 69 +34 +37 очень
душно
1018.5 1018.1 +20.6 +27.8
ЮВ 2 16 км 2/2 900 м +27.2 +20.0 65 +33 +37 очень
душно
1017.6 1017.1
ЮВ 2 16 км 2/2 960 м +27.2 +19.4 62 +33 +36 очень
душно
1017.2 1016.8
ЮВ 2 16 км 2/2 900 м +26.7 +20.6 69 +33 +36 очень
душно
1017.3 1017.1
ЮВ 2 16 км 2/2 900 м +26.1 +20.6 72 +33 +34 очень
душно
1017.5 1017.1
ЮВ 2 16 км 2/2 750 м +25.6 +20.6 74 +32 +32 очень
душно
1018.0 1017.5
Местоположение метеостанции Fort Lauderdale Hollywood International Airport: широта 26.0681 долгота -80.1525 высота над уровнем моря 3 м.
В архиве по умолчанию представлена погода в Форт-Лодердейле за последние 1-2 суток. Обновление информации о фактической погоде в базе происходит ежечасно! Архивные данные за месяц целиком и за предыдущие месяцы Вы можете получить, выбрав интересующий диапазон дат из раскрывающегося списка и нажав кнопку "Ввод!".
Внимание! Архив погоды МЕТАР в базе сайта по станциям, не включенным в климатический монитор, хранится не более 60 дней. Нет смысла пытаться выбрать более раннюю дату.
*Определитесь, кто Вы:
Внимание! Время в таблицах - местное (без учета летнего времени). Для получения всемирного времени необходимо вычесть поправку, которая равна -5 ч.
Смотрите также архив погоды в соседних городах и на ближайших метеорологических станциях:
Партнеры нашего сайта:      
Пояснения к столбцам:
  • Ветер - указаны скорость ветра в м/с - средняя за 10 мин, порывы в срок и между сроками (в фигурных скобках) и направление, откуда дует ветер: С - северный,
  • СВ - северо-восточный, В - восточный, ЮВ - юго-восточный, Ю - южный, ЮЗ - юго-западный, З - западный, СЗ - северо-западный.
  • Видимость - горизонтальная дальность видимости в метрах или километрах. При видимости от 1 до 10 км при отсутствии осадков обычно наблюдается дымка, при ухудшении видимости до 1 км и менее - туман. В сухую погоду видимость может ухудшаться дымом, пылью или мглою.
  • Явления - указаны атмосферные явления, наблюдавшиеся в срок или в последний час перед сроком; фигурными скобками обозначены явления, наблюдавшиеся между сроками (за 1-3 часа до срока); квадратными скобками обозначены град или гололедные отложения с указанием их диаметра в мм.
  • Облачность - указаны через наклонную черту общая и нижняя облачность в баллах и высота нижней границы облаков в метрах; квадратными скобками обозначены формы облаков: Ci - перистые, Cs - перисто-слоистые, Cc - перисто-кучевые, Ac - высококучевые, As - высокослоистые, Sc - слоисто-кучевые, Ns - слоисто-дождевые, Cu - кучевые, Cb - кучево-дождевые. Подробнее классификацию облаков см. в Атласе облаков (PDF).
  • T - Температура воздуха - температура, измеренная на высоте 2 м над землей.
  • Td - Температура точки росы - температура, при понижении до которой содержащийся в воздухе водяной пар достигнет насыщения.
  • f - Относительная влажность воздуха - влажноcть воздуха, измеренная на высоте 2 м над землей.
  • Te - Эффективная температура - температура, которую ощущает одетый по сезону человек в тени. Характеристика душности погоды. При расчете учитывается влияние влажности воздуха и скорости ветра на теплоощущения человека.
  • Tes - Эффективная температура на солнце - температура, которую ощущает человек, с поправкой на солнечный нагрев. Характеристика знойности погоды. Зависит от высоты солнца над горизонтом, облачности и скорости ветра. Ночью, в пасмурную погоду, а также при ветре 12 м/с и более поправка равна нулю.
  • P - Атмосферное давление - приведенное к уровню моря атмосферное давление.
  • Po - Атмосферное давление - измеренное на уровне метеостанции атмосферное давление.
  • Tmin - Минимальная температура - минимум температуры воздуха на высоте 2 м над землей.
  • Tmax - Максимальная температура - максимум температуры воздуха на высоте 2 м над землей.
  • R - Количество осадков - Количество выпавших осадков за период времени, мм. При наведении курсора мыши на число - период времени, за который выпало указанное количество осадков.
  • R24 - Количество осадков - Количество выпавших осадков за 24 часа, мм.
  • S - Снежный покров - Высота снежного покрова, см. При наведении курсора мыши на число - состояние снежного покрова и степень покрытия местности в баллах.